• In Deutschland
  • Länderverzeichnis
  • Für 7 Tage
  • Wassertemperatur
  • Satellitenkarten
  • Wetterkarte
  • Widgets
  • user-avatar
    Anmelden

    Stündliche Wetter Limoeiro

    Heute, 24 April, Dienstag

    Zeit Temperatur Niederschläge Wind Luftdruck Luftfeuchtigkeit
    00:00 +25°C° 0,3 mm 2 m/S 746 mmHg 93%
    01:00 +25°C° 0,3 mm 2 m/S 746 mmHg 93%
    02:00 +25°C° 0,2 mm 2 m/S 746 mmHg 93%
    03:00 +25°C° 0,2 mm 2 m/S 746 mmHg 93%
    04:00 +24°C° 0 mm 2 m/S 745 mmHg 93%
    05:00 +25°C° 0,1 mm 2 m/S 745 mmHg 93%
    06:00 +25°C° 0,1 mm 2 m/S 745 mmHg 92%
    07:00 +25°C° 0,1 mm 2 m/S 746 mmHg 92%
    08:00 +26°C° 0,1 mm 2 m/S 746 mmHg 84%
    09:00 +28°C° 0,1 mm 3 m/S 746 mmHg 77%
    10:00 +29°C° 0,1 mm 4 m/S 747 mmHg 69%
    11:00 +30°C° 0,1 mm 4 m/S 747 mmHg 67%
    12:00 +32°C° 0,1 mm 4 m/S 746 mmHg 64%
    13:00 +32°C° 0,1 mm 4 m/S 746 mmHg 62%
    14:00 +32°C° 0 mm 4 m/S 746 mmHg 63%
    15:00 +32°C° 0 mm 4 m/S 745 mmHg 63%
    16:00 +32°C° 0 mm 4 m/S 745 mmHg 64%
    17:00 +29°C° 0 mm 4 m/S 745 mmHg 71%
    18:00 +28°C° 0 mm 3 m/S 745 mmHg 79%
    19:00 +26°C° 0 mm 3 m/S 745 mmHg 86%
    20:00 +26°C° 0 mm 2 m/S 746 mmHg 89%
    21:00 +25°C° 0 mm 2 m/S 746 mmHg 91%
    22:00 +25°C° 0 mm 2 m/S 747 mmHg 94%
    23:00 +25°C° 0,1 mm 2 m/S 747 mmHg 94%

    Morgen, 25 April, Mittwoch

    Zeit Temperatur Niederschläge Wind Luftdruck Luftfeuchtigkeit
    00:00 +25°C° 0,1 mm 2 m/S 746 mmHg 95%
    01:00 +25°C° 0,1 mm 2 m/S 746 mmHg 95%
    02:00 +25°C° 0,1 mm 2 m/S 746 mmHg 95%
    03:00 +25°C° 0,1 mm 2 m/S 746 mmHg 95%
    04:00 +25°C° 0,1 mm 2 m/S 745 mmHg 95%
    05:00 +25°C° 0,1 mm 2 m/S 745 mmHg 95%
    06:00 +25°C° 0,1 mm 2 m/S 746 mmHg 94%
    07:00 +25°C° 0,1 mm 2 m/S 746 mmHg 94%
    08:00 +26°C° 0,2 mm 3 m/S 746 mmHg 88%
    09:00 +28°C° 0,2 mm 4 m/S 747 mmHg 83%
    10:00 +29°C° 0,2 mm 4 m/S 747 mmHg 77%
    11:00 +29°C° 0,9 mm 5 m/S 747 mmHg 76%
    12:00 +30°C° 0,9 mm 5 m/S 747 mmHg 75%
    13:00 +30°C° 0,9 mm 5 m/S 746 mmHg 74%
    14:00 +30°C° 1,2 mm 5 m/S 746 mmHg 76%
    15:00 +29°C° 1,2 mm 5 m/S 745 mmHg 78%
    16:00 +29°C° 1,2 mm 5 m/S 745 mmHg 80%
    17:00 +28°C° 0,7 mm 4 m/S 745 mmHg 84%
    18:00 +27°C° 0,7 mm 3 m/S 745 mmHg 88%
    19:00 +25°C° 0,7 mm 3 m/S 746 mmHg 93%
    20:00 +25°C° 0,6 mm 2 m/S 746 mmHg 93%
    21:00 +25°C° 0,6 mm 2 m/S 746 mmHg 94%
    22:00 +25°C° 0,6 mm 2 m/S 747 mmHg 94%
    23:00 +25°C° 0,9 mm 2 m/S 747 mmHg 94%

    übermorgen, 26 April, Donnerstag

    Zeit Temperatur Niederschläge Wind Luftdruck Luftfeuchtigkeit
    00:00 +25°C° 0,9 mm 2 m/S 747 mmHg 94%
    01:00 +25°C° 0,9 mm 2 m/S 746 mmHg 94%
    02:00 +25°C° 0,9 mm 2 m/S 746 mmHg 94%
    03:00 +25°C° 0,9 mm 2 m/S 746 mmHg 94%
    04:00 +25°C° 0,9 mm 2 m/S 745 mmHg 94%
    05:00 +25°C° 0,5 mm 2 m/S 745 mmHg 94%
    06:00 +25°C° 0,5 mm 2 m/S 745 mmHg 94%
    07:00 +25°C° 0,5 mm 2 m/S 745 mmHg 94%
    08:00 +27°C° 0,1 mm 3 m/S 746 mmHg 87%
    09:00 +28°C° 0,1 mm 3 m/S 747 mmHg 81%
    10:00 +29°C° 0,1 mm 4 m/S 747 mmHg 75%
    11:00 +30°C° 0,1 mm 4 m/S 747 mmHg 72%
    12:00 +32°C° 0,1 mm 4 m/S 746 mmHg 68%
    13:00 +32°C° 0,1 mm 5 m/S 746 mmHg 65%
    14:00 +32°C° 0 mm 5 m/S 745 mmHg 67%
    15:00 +30°C° 0 mm 4 m/S 745 mmHg 68%
    16:00 +30°C° 0 mm 4 m/S 744 mmHg 70%
    17:00 +29°C° 0 mm 4 m/S 745 mmHg 75%
    18:00 +28°C° 0 mm 3 m/S 745 mmHg 81%
    19:00 +26°C° 0 mm 3 m/S 745 mmHg 86%
    20:00 +26°C° 0 mm 2 m/S 745 mmHg 88%
    21:00 +26°C° 0 mm 2 m/S 746 mmHg 89%
    22:00 +25°C° 0 mm 2 m/S 746 mmHg 91%
    23:00 +25°C° 0 mm 2 m/S 746 mmHg 91%

    27 April, Freitag

    Zeit Temperatur Niederschläge Wind Luftdruck Luftfeuchtigkeit
    00:00 +25°C° 0 mm 2 m/S 746 mmHg 92%
    01:00 +25°C° 0 mm 2 m/S 746 mmHg 92%
    02:00 +25°C° 0 mm 2 m/S 745 mmHg 93%
    03:00 +25°C° 0 mm 2 m/S 745 mmHg 94%
    04:00 +24°C° 0 mm 2 m/S 745 mmHg 94%
    05:00 +24°C° 0 mm 2 m/S 745 mmHg 94%
    06:00 +24°C° 0 mm 2 m/S 745 mmHg 93%
    07:00 +24°C° 0 mm 2 m/S 745 mmHg 93%
    08:00 +26°C° 0 mm 2 m/S 746 mmHg 86%
    09:00 +28°C° 0 mm 3 m/S 746 mmHg 78%
    10:00 +30°C° 0 mm 3 m/S 747 mmHg 71%
    11:00 +30°C° 0,6 mm 3 m/S 746 mmHg 70%
    12:00 +32°C° 0,6 mm 4 m/S 746 mmHg 70%
    13:00 +32°C° 0,6 mm 4 m/S 745 mmHg 69%
    14:00 +32°C° 0,7 mm 4 m/S 745 mmHg 70%
    15:00 +30°C° 0,7 mm 4 m/S 745 mmHg 72%
    16:00 +30°C° 0,7 mm 4 m/S 744 mmHg 73%
    17:00 +29°C° 0,2 mm 3 m/S 745 mmHg 78%
    18:00 +27°C° 0,2 mm 3 m/S 745 mmHg 83%
    19:00 +26°C° 0,2 mm 2 m/S 745 mmHg 88%
    20:00 +26°C° 0 mm 2 m/S 746 mmHg 90%
    21:00 +26°C° 0 mm 2 m/S 746 mmHg 91%
    22:00 +25°C° 0 mm 2 m/S 747 mmHg 93%
    23:00 +25°C° 0 mm 2 m/S 746 mmHg 94%

    28 April, Samstag

    Zeit Temperatur Niederschläge Wind Luftdruck Luftfeuchtigkeit
    00:00 +25°C° 0 mm 2 m/S 746 mmHg 94%
    01:00 +25°C° 0 mm 2 m/S 746 mmHg 95%
    02:00 +25°C° 0 mm 2 m/S 745 mmHg 95%
    03:00 +24°C° 0 mm 2 m/S 745 mmHg 95%
    04:00 +24°C° 0 mm 2 m/S 745 mmHg 95%
    05:00 +24°C° 0 mm 2 m/S 745 mmHg 95%
    06:00 +25°C° 0 mm 2 m/S 746 mmHg 95%
    07:00 +25°C° 0 mm 2 m/S 746 mmHg 94%
    08:00 +26°C° 0 mm 2 m/S 746 mmHg 88%
    09:00 +28°C° 0 mm 3 m/S 747 mmHg 81%
    10:00 +29°C° 0 mm 3 m/S 747 mmHg 74%
    11:00 +30°C° 0,4 mm 3 m/S 747 mmHg 71%
    12:00 +32°C° 0,4 mm 4 m/S 746 mmHg 69%
    13:00 +32°C° 0,4 mm 4 m/S 746 mmHg 67%
    14:00 +32°C° 1 mm 4 m/S 745 mmHg 70%
    15:00 +30°C° 1 mm 4 m/S 745 mmHg 74%
    16:00 +29°C° 1 mm 4 m/S 745 mmHg 78%
    17:00 +28°C° 0,2 mm 3 m/S 745 mmHg 82%
    18:00 +27°C° 0,2 mm 3 m/S 745 mmHg 87%
    19:00 +26°C° 0,2 mm 2 m/S 746 mmHg 92%
    20:00 +26°C° 0 mm 2 m/S 746 mmHg 93%
    21:00 +25°C° 0 mm 2 m/S 746 mmHg 94%
    22:00 +25°C° 0 mm 2 m/S 747 mmHg 95%
    23:00 +25°C° 0 mm 2 m/S 746 mmHg 95%

    29 April, Sonntag

    Zeit Temperatur Niederschläge Wind Luftdruck Luftfeuchtigkeit
    00:00 +25°C° 0 mm 2 m/S 746 mmHg 95%
    01:00 +25°C° 0 mm 1 m/S 746 mmHg 96%
    02:00 +25°C° 0,1 mm 1 m/S 746 mmHg 95%
    03:00 +25°C° 0,1 mm 1 m/S 745 mmHg 95%
    04:00 +25°C° 0,1 mm 1 m/S 745 mmHg 95%
    05:00 +25°C° 0 mm 1 m/S 746 mmHg 95%
    06:00 +25°C° 0 mm 1 m/S 746 mmHg 95%
    07:00 +25°C° 0 mm 2 m/S 746 mmHg 95%
    08:00 +26°C° 0,1 mm 2 m/S 747 mmHg 88%
    09:00 +28°C° 0,1 mm 2 m/S 747 mmHg 81%
    10:00 +29°C° 0,1 mm 3 m/S 747 mmHg 75%
    11:00 +30°C° 1,1 mm 3 m/S 747 mmHg 74%
    12:00 +30°C° 1,1 mm 3 m/S 746 mmHg 73%
    13:00 +32°C° 1,1 mm 4 m/S 746 mmHg 71%
    14:00 +32°C° 0,7 mm 4 m/S 745 mmHg 72%
    15:00 +30°C° 0,7 mm 4 m/S 745 mmHg 72%
    16:00 +30°C° 0,7 mm 4 m/S 744 mmHg 72%
    17:00 +29°C° 0,3 mm 4 m/S 745 mmHg 78%
    18:00 +28°C° 0,3 mm 3 m/S 745 mmHg 83%
    19:00 +26°C° 0,3 mm 3 m/S 746 mmHg 88%
    20:00 +26°C° 0,5 mm 3 m/S 746 mmHg 90%
    21:00 +26°C° 0,5 mm 2 m/S 746 mmHg 92%
    22:00 +25°C° 0,5 mm 2 m/S 747 mmHg 94%
    23:00 +25°C° 1 mm 2 m/S 747 mmHg 94%
    Mehr zeigen